Fort Smith, AR

10:29 PM CDT on September 29, 2016 (GMT -0500)
Fort Smith Regional

Weather History for KFSM - May, 2013

Change the Weather History Date:

Wednesday, May 8, 2013

  Actual Average Record
Temperature  
Mean Temperature 71 °F 68 °F  
Max Temperature 85 °F 79 °F 95 °F (1918)
Min Temperature 56 °F 57 °F 40 °F (1982)
Cooling Degree Days 6 4  
Month to date cooling degree days 15 28  
Year to date cooling degree days 88 94  
Growing Degree Days 20 (Base 50)    
Moisture  
Dew Point 56 °F    
Average Humidity 67    
Maximum Humidity 93    
Minimum Humidity 40    
Precipitation  
Precipitation 0.00 in 0.18 in 2.96 in (1943)
Month to date precipitation 0.34 1.41  
Year to date precipitation 15.92 15.13  
Sea Level Pressure  
Sea Level Pressure 29.97 in    
Wind  
Wind Speed 5 mph (East)    
Max Wind Speed 14 mph    
Max Gust Speed 20 mph    
Visibility 10 miles    
Events      
T = Trace of Precipitation, MM = Missing Value Source: NWS Daily Summary

Daily Weather History Graph

Daily Weather History Graph

Search for Another Location

Airport or City:

Trip Planner

Search our weather history database for the weather conditions in past years. The results will help you decide how hot, cold, wet, or windy it might be!

Date:

Astronomy

May. 08, 2013 Rise Set
Actual Time 6:18 AM CDT 8:09 PM CDT
Civil Twilight 5:51 AM CDT 8:37 PM CDT
Nautical Twilight 5:17 AM CDT 9:10 PM CDT
Astronomical Twilight 4:41 AM CDT 9:46 PM CDT
Moon 5:24 AM CDT (5/8) 7:10 PM CDT (5/8)
Length of Visible Light 14h 46m
Length of Day
13h 50m
Waning Crescent, 2% of the Moon is Illuminated
May 8
Waning Crescent
May 9
New
May 17
First Quarter
May 24
Full
May 31
Last Quarter

Hourly Weather History & Observations

Time (CDT) Temp. Heat Index Dew Point Humidity Pressure Visibility Wind Dir Wind Speed Gust Speed Precip Events Conditions
12:53 AM 62.1 °F - 54.0 °F 75% 30.00 in 10.0 mi Calm Calm - N/A   Clear
1:53 AM 61.0 °F - 54.0 °F 78% 30.00 in 10.0 mi NE 3.5 mph - N/A   Clear
2:53 AM 57.9 °F - 54.0 °F 87% 29.99 in 10.0 mi ENE 3.5 mph - N/A   Partly Cloudy
3:53 AM 57.9 °F - 54.0 °F 87% 29.99 in 10.0 mi NE 3.5 mph - N/A   Partly Cloudy
4:53 AM 57.0 °F - 53.1 °F 87% 29.97 in 10.0 mi ENE 4.6 mph - N/A   Clear
5:53 AM 55.9 °F - 53.1 °F 90% 29.97 in 10.0 mi ENE 4.6 mph - N/A   Clear
6:53 AM 55.9 °F - 53.1 °F 90% 30.00 in 10.0 mi NE 3.5 mph - N/A   Clear
7:53 AM 61.0 °F - 55.9 °F 83% 30.00 in 10.0 mi ENE 6.9 mph - N/A   Clear
8:53 AM 66.0 °F - 57.0 °F 73% 30.00 in 10.0 mi NE 5.8 mph - N/A   Clear
9:53 AM 71.1 °F - 59.0 °F 66% 30.01 in 10.0 mi NE 5.8 mph - N/A   Clear
10:53 AM 75.9 °F - 60.1 °F 58% 30.03 in 10.0 mi NNE 5.8 mph - N/A   Clear
11:53 AM 78.1 °F - 57.0 °F 48% 30.03 in 10.0 mi Calm Calm - N/A   Clear
12:53 PM 81.0 °F 80.7 °F 55.0 °F 41% 30.00 in 10.0 mi SSW 6.9 mph - N/A   Clear
1:53 PM 82.9 °F 82.4 °F 57.0 °F 41% 30.00 in 10.0 mi NE 6.9 mph - N/A   Clear
2:53 PM 84.0 °F 83.8 °F 59.0 °F 43% 29.98 in 10.0 mi NE 5.8 mph - N/A   Scattered Clouds
3:53 PM 82.0 °F 81.4 °F 55.0 °F 39% 29.95 in 10.0 mi SE 5.8 mph - N/A   Mostly Cloudy
4:53 PM 84.9 °F 83.9 °F 57.0 °F 38% 29.92 in 10.0 mi SSE 6.9 mph - N/A   Clear
5:53 PM 82.9 °F 82.4 °F 57.0 °F 41% 29.90 in 10.0 mi SSE 10.4 mph 18.4 mph N/A   Clear
6:53 PM 82.0 °F 81.4 °F 55.0 °F 39% 29.89 in 10.0 mi SSE 8.1 mph - N/A   Clear
7:53 PM 79.0 °F - 55.9 °F 45% 29.90 in 10.0 mi SSE 4.6 mph - N/A   Clear
8:53 PM 75.9 °F - 57.0 °F 52% 29.91 in 10.0 mi South 3.5 mph - N/A   Clear
9:53 PM 73.9 °F - 57.0 °F 55% 29.91 in 10.0 mi Calm Calm - N/A   Clear
10:53 PM 71.1 °F - 57.9 °F 63% 29.92 in 10.0 mi Calm Calm - N/A   Clear
11:53 PM 69.1 °F - 59.0 °F 70% 29.96 in 10.0 mi Calm Calm - N/A   Clear